NEE-02 KRYSAOR

Last updated on Sun Nov 09 2025 00:03:53 GMT+0000 (Coordinated Universal Time)

1 39441U 13066AB 25312.35507936 .00004361 00000+0 49284-3 0 9991 2 39441 97.8683 248.6122 0069513 73.7601 287.1247 14.85250991643409
UTC large
Height (km)
Speed (km/s)
/
Latitude / Longitude
Inclination (degrees)
Orbital Period (minutes)
Azimuth
Elevation
Range (km)
Doppler Factor

Next 0 passes for location: London (51.5072 / 0.1276)

Sorry there are no passes over London.